FENGYUN 1C DEB, 40690

Orbit data source: Space-Track

FENGYUN 1C DEB, 40690 is space debris in SSO originally from a launch on Mon, 10 May 1999 UTC launched from the Taiyaun Space Center, China (TSC). Fengyun 1C debris stems from the Chinese weather satellite Fengyun-1C, which was intentionally destroyed by a Chinese anti-satellite missile in 2007. This event dramatically increased the amount of space debris, with thousands of trackable fragments posing hazards to satellites and human spaceflight. The Fengyun 1C debris cloud has become a focal point in discussions about space sustainability and the need for international regulations to prevent the creation of new debris.

Loading next visibility...
Identifier
40690, 1999-025EWW
Orbit
SSO
Country
Flag of CNCN / PRC
Related business
Manufacturer
Unknown
Mission
Spacecraft
Bus & Motor
Unknown
Mass
Unknown
Launch date (UTC)
1999-05-10 (26 years ago)
Launch vehicle
Unknown
Launch site
Taiyaun Space Center, China (TSC)
Object type
Payload
Rocket body
Debris
Shape & HBR
Unknown shape, 0.1 m
Radar Cross Section
Small (<0.1 m²)

Expand to show TLE details & history
Last TLE update: 4 weeks ago

TLE from 4 weeks ago
0 FENGYUN 1C DEB
1 40690U 99025EWW 25266.35712029  .00000695  00000-0  52655-3 0  9990
2 40690  99.4341 299.4699 0092967   5.2368 354.9743 13.95564785602541
Epoch: 2025-09-23T08:34Z
TLE epoch observation values (Epoch: 2025-09-23T08:34:15.193Z)
Latitude
-0.00003°
Longitude
168.45848°
Altitude
844.556 km
Speed
7.465 km/s
True Right ascension
19h 57m 52s
True Declination
0° 00' 00"
Sunlit
Object was in full shadow at epoch
Visualization orbit readout
Latitude
Unknown
Longitude
Unknown
Altitude
Unknown
Speed
Unknown
Apparent Right ascension
Unknown
Apparent Declination
Unknown
Sunlit
N/A
Visualization observer readout
Local Sidereal Time
15:29:28
Azimuth
Unknown
Elevation
Unknown
Doppler factor
Unknown
Orbital elements
Apogee altitude
974.143 km
Perigee altitude
838.699 km
Semi-major axis
7,284.558 km
Eccentricity
0.0093
Inclination
99.4341°
RAAN
299.4699°
Arg. of periapsis
5.2368°
True anomaly
354.87988°
Mean anomaly
354.9743°
Eccentric anomaly
354.9272°
Mean motion
3.49091 °/min
Orbital period
103.13 mins
BSTAR
0.00052655
Loading maneuver chart data...
Computing Atmospheric mass density...

Documentation

Showing up to 5 results
|